M I D A S
Marine Information and Data Acquisition System
Tripno 1934 of the Zeeleeuw from 2010-08-10 06:22:44 to 2010-08-10 14:52:31
Back to CruiseResearch ActivitiesStationsMapUnderway DataData graphs

EquipmentUnitsComments
TimeDGPSUTC
LatitudeDGPSDM.mWGS84
LongitudeDGPSDM.mWGS84
SpeedMeteo Stationm/sRelative wind speed
DirectionMeteo StationdegRelative wind direction
TemperatureMeteo Stationdeg CelciusAir temperature
PressureMeteo StationPaAtmospheric pressure
HumidityMeteo Station%Relative humidity
Missing or incorrect values are displayed as -999
Metereological data collected by the RV Zeeleeuw from 2010-08-10 06:19:19 to 2010-08-10 14:59:33
Time Latitude Longitude Speed Direction Temperature Pressure Humidity
2010-08-10 06:20 51°13.684 2°55.891 2.7 33 16.4 101300 45
2010-08-10 06:21 51°13.696 2°55.788 2.3 44 16.5 101290 43
2010-08-10 06:22 51°13.7 2°55.747 3.7 41 16.5 101290 44
2010-08-10 06:23 51°13.691 2°55.733 3.1 53 16.5 101290 44
2010-08-10 06:24 51°13.735 2°55.711 2.5 306 16.5 101290 44
2010-08-10 06:25 51°13.863 2°55.612 1.1 307 16.6 101300 43
2010-08-10 06:26 51°14.018 2°55.507 2.9 308 16.6 101290 43
2010-08-10 06:28 51°14.348 2°55.228 2.9 305 16.6 101290 44
2010-08-10 06:31 51°14.583 2°54.479 10.8 301 16.8 101260 45
2010-08-10 06:32 51°14.468 2°54.162 11.8 303 16.8 101230 43
2010-08-10 06:33 51°14.35 2°53.839 11 303 16.7 101210 44
2010-08-10 06:34 51°14.231 2°53.516 11.4 318 16.6 101230 45
2010-08-10 06:35 51°14.104 2°53.182 11.6 303 16.6 101230 44
2010-08-10 06:36 51°13.979 2°52.85 11.5 305 16.5 101220 45
2010-08-10 06:37 51°13.855 2°52.524 10.8 305 16.4 101230 44
2010-08-10 06:38 51°13.726 2°52.187 11.9 318 16.4 101220 45
2010-08-10 06:39 51°13.599 2°51.855 10.3 306 16.3 101220 45
2010-08-10 06:40 51°13.473 2°51.521 10.6 306 16.4 101230 44
2010-08-10 06:41 51°13.35 2°51.191 11.4 321 16.4 101240 46
2010-08-10 06:42 51°13.223 2°50.851 10.8 301 16.4 101240 46
2010-08-10 06:43 51°13.098 2°50.516 10.8 304 16.4 101240 46
2010-08-10 06:44 51°12.974 2°50.179 11 306 16.5 101250 46
2010-08-10 06:45 51°12.851 2°49.846 10.6 305 16.5 101240 45
2010-08-10 06:46 51°12.724 2°49.501 11 304 16.6 101240 46
2010-08-10 06:47 51°12.599 2°49.165 10.3 318 16.6 101240 45
2010-08-10 06:48 51°12.476 2°48.833 11.6 303 16.7 101240 44
2010-08-10 06:49 51°12.352 2°48.501 10.7 302 16.8 101240 45
2010-08-10 06:50 51°12.232 2°48.173 12.5 303 16.8 101240 46
2010-08-10 06:51 51°12.108 2°47.835 11.3 305 16.9 101240 46
2010-08-10 06:52 51°11.987 2°47.508 11 302 16.9 101250 45
2010-08-10 06:53 51°11.87 2°47.187 10.8 302 16.9 101240 45
2010-08-10 06:54 51°11.749 2°46.857 10.5 307 17 101240 45
2010-08-10 06:55 51°11.632 2°46.538 10.7 302 17 101240 46
2010-08-10 06:56 51°11.514 2°46.207 10.2 308 17 101250 44
2010-08-10 06:57 51°11.397 2°45.89 10.8 305 17 101250 46
2010-08-10 06:58 51°11.278 2°45.559 11.4 324 17 101250 46
2010-08-10 06:59 51°11.16 2°45.236 10.2 304 17.1 101240 46
2010-08-10 07:00 51°11.046 2°44.917 10.7 303 17.1 101250 46
2010-08-10 07:01 51°10.929 2°44.588 11 306 17.2 101250 46
2010-08-10 07:02 51°10.811 2°44.273 11 304 17.2 101230 47
2010-08-10 07:03 51°10.657 2°44.009 12.5 304 17.3 101230 47
2010-08-10 07:04 51°10.509 2°43.742 11.6 308 17.2 101240 45
2010-08-10 07:05 51°10.368 2°43.469 10.7 304 17.2 101240 46
2010-08-10 07:06 51°10.228 2°43.196 10 301 17.2 101230 46
2010-08-10 07:07 51°10.132 2°43.03 7.4 301 17.1 101240 46
2010-08-10 07:08 51°10.117 2°42.902 5.4 306 17.1 101270 46
2010-08-10 07:09 51°10.12 2°42.843 6.3 308 17.2 101280 47
2010-08-10 07:10 51°10.117 2°42.824 6.2 54 17.2 101280 47
2010-08-10 07:11 51°10.114 2°42.806 6.1 53 17.1 101280 45
2010-08-10 07:12 51°10.114 2°42.789 6.4 52 17.1 101270 44
2010-08-10 07:13 51°10.114 2°42.772 5.8 308 17 101270 44
2010-08-10 07:14 51°10.114 2°42.752 5.1 306 17.1 101270 46
2010-08-10 07:15 51°10.113 2°42.732 5.3 310 17.1 101270 46
2010-08-10 07:16 51°10.111 2°42.713 4.1 308 17.1 101270 45
2010-08-10 07:17 51°10.109 2°42.695 6.8 306 17.1 101270 46
2010-08-10 07:18 51°10.107 2°42.677 5.8 305 17.1 101270 46
2010-08-10 07:19 51°10.107 2°42.655 6.1 306 17.1 101270 46
2010-08-10 07:20 51°10.138 2°42.585 3.9 306 17.2 101280 45
2010-08-10 07:21 51°10.235 2°42.488 4 306 17.2 101280 45
2010-08-10 07:22 51°10.372 2°42.419 3.8 302 17.2 101280 45
2010-08-10 07:23 51°10.516 2°42.352 2.5 54 17.2 101280 44
2010-08-10 07:24 51°10.663 2°42.293 4.1 299 17.2 101280 45
2010-08-10 07:25 51°10.807 2°42.24 1.8 53 17.2 101270 47
2010-08-10 07:26 51°10.957 2°42.203 3.3 52 17.2 101270 47
2010-08-10 07:27 51°11.103 2°42.148 3.5 315 17.3 101270 46
2010-08-10 07:28 51°11.214 2°42.043 6.8 307 17.4 101270 45
2010-08-10 07:29 51°11.206 2°41.916 8.6 308 17.5 101260 46
2010-08-10 07:30 51°11.157 2°41.858 7.3 342 17.4 101250 46
2010-08-10 07:33 51°10.944 2°41.817 9.2 328 17.4 101240 46
2010-08-10 07:34 51°10.873 2°41.758 7.1 331 17.4 101240 46
2010-08-10 07:35 51°10.817 2°41.711 6.8 330 17.3 101240 46
2010-08-10 07:36 51°10.772 2°41.649 6.5 319 17.3 101240 45
2010-08-10 07:37 51°10.74 2°41.572 7.8 21 17.3 101240 46
2010-08-10 07:38 51°10.714 2°41.489 7.1 21 17.3 101230 45
2010-08-10 07:39 51°10.686 2°41.408 6.6 22 17.3 101230 45
2010-08-10 07:40 51°10.655 2°41.326 6.2 24 17.3 101230 45
2010-08-10 07:41 51°10.624 2°41.243 7.2 21 17.3 101220 45
2010-08-10 07:42 51°10.593 2°41.161 7.3 26 17.3 101220 46
2010-08-10 07:43 51°10.562 2°41.079 7.3 27 17.3 101230 45
2010-08-10 07:44 51°10.53 2°40.997 8.4 24 17.4 101230 44
2010-08-10 07:45 51°10.498 2°40.915 7.3 315 17.4 101230 45
2010-08-10 07:46 51°10.467 2°40.835 7 20 17.3 101230 45
2010-08-10 07:47 51°10.436 2°40.756 7.1 26 17.4 101220 46
2010-08-10 07:48 51°10.405 2°40.677 7.4 316 17.4 101220 45
2010-08-10 07:49 51°10.375 2°40.599 7.1 23 17.3 101220 45
2010-08-10 07:50 51°10.344 2°40.522 7 318 17.4 101220 45
2010-08-10 07:51 51°10.314 2°40.445 7.8 22 17.3 101220 46
2010-08-10 07:52 51°10.283 2°40.367 5.9 316 17.4 101230 44
2010-08-10 07:53 51°10.25 2°40.292 7.6 319 17.4 101230 45
2010-08-10 07:54 51°10.22 2°40.216 6.6 316 17.4 101220 45
2010-08-10 07:55 51°10.19 2°40.141 7.1 29 17.4 101220 46
2010-08-10 07:56 51°10.16 2°40.065 6.5 20 17.4 101210 46
2010-08-10 07:57 51°10.131 2°39.991 6 29 17.5 101210 45
2010-08-10 07:58 51°10.101 2°39.917 6.2 21 17.5 101220 45
2010-08-10 07:59 51°10.071 2°39.841 7.3 26 17.6 101220 46
2010-08-10 08:00 51°10.04 2°39.771 7 319 17.5 101210 44
2010-08-10 08:01 51°9.993 2°39.714 8.8 333 17.6 101220 46
2010-08-10 08:02 51°9.932 2°39.667 7.7 328 17.6 101230 45
2010-08-10 08:03 51°9.885 2°39.61 7 328 17.6 101210 46
2010-08-10 08:04 51°9.848 2°39.547 8.2 318 17.6 101220 45
2010-08-10 08:05 51°9.817 2°39.469 6.6 30 17.6 101210 45
2010-08-10 08:06 51°9.798 2°39.371 7.4 23 17.7 101210 45
2010-08-10 08:07 51°9.806 2°39.258 8.6 261 17.7 101210 45
2010-08-10 08:08 51°9.845 2°39.159 5.1 268 17.7 101220 46
2010-08-10 08:09 51°9.881 2°39.104 6.6 27 17.8 101220 46
2010-08-10 08:10 51°9.907 2°39.059 6.4 29 17.7 101220 45
2010-08-10 08:11 51°9.921 2°39.015 4.9 263 17.7 101220 46
2010-08-10 08:12 51°9.932 2°38.967 5.9 259 17.7 101230 46
2010-08-10 08:13 51°10.007 2°38.902 0.4 22 17.8 101230 46
2010-08-10 08:14 51°10.087 2°38.992 4.7 26 17.8 101230 46
2010-08-10 08:15 51°10.097 2°39.069 6.5 21 17.7 101240 44
2010-08-10 08:16 51°10.087 2°39.108 5.3 21 17.7 101250 44
2010-08-10 08:17 51°10.074 2°39.132 6.9 16 17.8 101240 46
2010-08-10 08:18 51°10.001 2°39.201 9.5 339 17.7 101230 46
2010-08-10 08:19 51°9.89 2°39.092 8.1 23 17.7 101230 45
2010-08-10 08:20 51°9.877 2°38.94 6.9 252 17.8 101210 45
2010-08-10 08:21 51°9.891 2°38.843 5.2 266 17.9 101230 45
2010-08-10 08:22 51°9.904 2°38.771 5.7 257 17.9 101230 45
2010-08-10 08:23 51°9.908 2°38.712 6.7 256 17.9 101230 45
2010-08-10 08:24 51°9.907 2°38.661 4.4 256 18 101220 44
2010-08-10 08:25 51°9.905 2°38.619 7 246 18.1 101230 45
2010-08-10 08:26 51°9.903 2°38.584 6.8 249 18.1 101220 45
2010-08-10 08:27 51°9.902 2°38.552 6 255 18.1 101220 46
2010-08-10 08:28 51°9.901 2°38.522 7.3 257 18.2 101220 45
2010-08-10 08:29 51°9.901 2°38.496 5.2 262 18.1 101220 45
2010-08-10 08:30 51°9.902 2°38.472 5.9 261 18.1 101220 46
2010-08-10 08:31 51°9.901 2°38.452 6.2 268 18.1 101220 46
2010-08-10 08:32 51°9.9 2°38.432 5.1 263 18.2 101220 43
2010-08-10 08:33 51°9.9 2°38.412 5.4 19 18.1 101220 46
2010-08-10 08:34 51°9.949 2°38.373 5.1 40 18.1 101230 46
2010-08-10 08:36 51°9.996 2°38.678 4.2 4 18.1 101210 45
2010-08-10 08:37 51°10.045 2°38.964 5.5 2 18.1 101210 45
2010-08-10 08:38 51°10.109 2°39.264 5.7 5 18.1 101210 45
2010-08-10 08:39 51°10.204 2°39.545 6.2 8 18 101220 46
2010-08-10 08:40 51°10.301 2°39.826 5.7 8 18 101220 46
2010-08-10 08:41 51°10.386 2°40.115 5.9 4 18 101210 45
2010-08-10 08:42 51°10.459 2°40.413 6.2 8 18 101210 45
2010-08-10 08:43 51°10.533 2°40.712 6.8 8 18.1 101210 45
2010-08-10 08:44 51°10.606 2°41.01 7 10 18.1 101220 45
2010-08-10 08:45 51°10.679 2°41.308 6.7 13 18.1 101220 45
2010-08-10 08:46 51°10.753 2°41.606 6.2 12 18.1 101220 46
2010-08-10 08:47 51°10.826 2°41.904 6.2 15 18.1 101220 45
2010-08-10 08:48 51°10.899 2°42.201 5.5 8 18.1 101220 45
2010-08-10 08:49 51°10.971 2°42.497 5.2 8 18.1 101220 45
2010-08-10 08:50 51°11.044 2°42.791 5.7 8 18.2 101230 45
2010-08-10 08:51 51°11.118 2°43.083 6.6 9 18.2 101230 45
2010-08-10 08:52 51°11.191 2°43.374 5.3 15 18.1 101230 46
2010-08-10 08:53 51°11.262 2°43.668 6.9 9 18.2 101220 44
2010-08-10 08:54 51°11.324 2°43.967 7.1 17 18.2 101220 45
2010-08-10 08:55 51°11.386 2°44.268 5.4 9 18.2 101220 45
2010-08-10 08:56 51°11.449 2°44.568 6.7 9 18.3 101220 45
2010-08-10 08:57 51°11.512 2°44.867 6.3 16 18.3 101220 44
2010-08-10 08:58 51°11.582 2°45.161 5.1 16 18.3 101220 45
2010-08-10 08:59 51°11.653 2°45.455 7 20 18.3 101210 45
2010-08-10 09:00 51°11.724 2°45.749 7.3 18 18.3 101210 46
2010-08-10 09:01 51°11.8 2°46.039 7.5 15 18.4 101210 45
2010-08-10 09:02 51°11.879 2°46.327 5.7 17 18.4 101210 45
2010-08-10 09:03 51°11.955 2°46.615 5.5 15 18.4 101210 44
2010-08-10 09:04 51°12.033 2°46.902 5.6 15 18.4 101210 43
2010-08-10 09:05 51°12.11 2°47.191 5.9 13 18.4 101210 45
2010-08-10 09:06 51°12.187 2°47.478 7 16 18.5 101210 45
2010-08-10 09:07 51°12.273 2°47.761 7.1 19 18.5 101210 46
2010-08-10 09:08 51°12.359 2°48.044 4.8 12 18.5 101210 45
2010-08-10 09:09 51°12.443 2°48.329 5.7 18 18.5 101210 45
2010-08-10 09:10 51°12.526 2°48.616 5.7 22 18.6 101210 46
2010-08-10 09:11 51°12.61 2°48.902 4.6 8 18.6 101220 45
2010-08-10 09:12 51°12.693 2°49.19 5.7 23 18.6 101220 43
2010-08-10 09:13 51°12.777 2°49.478 4.7 22 18.6 101210 44
2010-08-10 09:14 51°12.86 2°49.765 5.6 16 18.7 101210 45
2010-08-10 09:15 51°12.943 2°50.05 5.5 24 18.7 101210 45
2010-08-10 09:16 51°13.026 2°50.336 4.8 28 18.7 101220 45
2010-08-10 09:17 51°13.134 2°50.597 5.3 32 18.8 101220 44
2010-08-10 09:18 51°13.217 2°50.792 5.5 31 18.8 101210 45
2010-08-10 09:19 51°13.282 2°50.953 6.2 34 18.8 101210 45
2010-08-10 09:20 51°13.317 2°51.06 7 30 18.7 101200 42
2010-08-10 09:21 51°13.314 2°51.142 8.6 19 18.7 101200 44
2010-08-10 09:22 51°13.278 2°51.221 7 6 18.7 101200 45
2010-08-10 09:23 51°13.228 2°51.286 8.6 358 18.8 101200 45
2010-08-10 09:24 51°13.17 2°51.322 10 353 18.7 101190 45
2010-08-10 09:25 51°13.114 2°51.326 10.2 342 18.7 101200 44
2010-08-10 09:26 51°13.06 2°51.316 10.4 338 18.7 101200 44
2010-08-10 09:27 51°13.009 2°51.294 7.9 340 18.8 101200 44
2010-08-10 09:28 51°12.959 2°51.264 8.7 332 18.8 101200 42
2010-08-10 09:29 51°12.912 2°51.219 9.5 330 18.9 101210 44
2010-08-10 09:30 51°12.868 2°51.161 10.1 324 18.9 101210 45
2010-08-10 09:31 51°12.833 2°51.087 8.5 323 18.9 101190 44
2010-08-10 09:32 51°12.8 2°51.013 9.1 324 19 101190 45
2010-08-10 09:33 51°12.765 2°50.94 8.9 319 19.1 101200 44
2010-08-10 09:34 51°12.731 2°50.863 9.2 322 19.1 101190 44
2010-08-10 09:35 51°12.697 2°50.787 8.9 318 19.1 101190 44
2010-08-10 09:37 51°12.644 2°50.667 9.2 323 19.2 101180 44
2010-08-10 09:38 51°12.602 2°50.564 9.1 320 19.1 101180 44
2010-08-10 09:39 51°12.571 2°50.493 8.7 316 19.1 101180 44
2010-08-10 09:40 51°12.539 2°50.415 9.3 23 19.1 101190 44
2010-08-10 09:41 51°12.508 2°50.337 9.3 319 19.2 101200 45
2010-08-10 09:42 51°12.481 2°50.258 9.6 22 19.2 101180 44
2010-08-10 09:43 51°12.456 2°50.18 8 20 19.2 101180 44
2010-08-10 09:44 51°12.429 2°50.099 7.4 26 19.3 101180 43
2010-08-10 09:45 51°12.401 2°50.017 7.9 318 19.3 101180 44
2010-08-10 09:46 51°12.376 2°49.939 8.7 25 19.3 101170 44
2010-08-10 09:47 51°12.346 2°49.868 7 318 19.3 101170 45
2010-08-10 09:48 51°12.314 2°49.799 9.8 316 19.4 101180 44
2010-08-10 09:49 51°12.287 2°49.731 9.4 25 19.4 101170 43
2010-08-10 09:50 51°12.263 2°49.672 9 323 19.5 101170 44
2010-08-10 09:51 51°12.237 2°49.617 7.8 321 19.5 101170 44
2010-08-10 09:52 51°12.212 2°49.562 9.4 321 19.5 101180 44
2010-08-10 09:53 51°12.181 2°49.498 9.7 323 19.6 101170 44
2010-08-10 09:54 51°12.148 2°49.433 9.9 327 19.6 101170 43
2010-08-10 09:55 51°12.117 2°49.372 10 322 19.7 101170 43
2010-08-10 09:56 51°12.088 2°49.312 9.7 323 19.6 101180 43
2010-08-10 09:57 51°12.061 2°49.252 8.1 322 19.7 101180 44
2010-08-10 09:58 51°12.034 2°49.188 7.8 318 19.7 101170 44
2010-08-10 09:59 51°12.007 2°49.124 9.8 316 19.7 101170 43
2010-08-10 10:00 51°11.995 2°49.051 10.7 24 19.6 101150 44
2010-08-10 10:01 51°11.996 2°48.976 8.7 251 19.6 101160 43
2010-08-10 10:02 51°12.015 2°48.902 8.4 258 19.6 101160 43
2010-08-10 10:03 51°12.048 2°48.839 4.8 269 19.6 101170 44
2010-08-10 10:04 51°12.08 2°48.807 6.2 265 19.6 101170 44
2010-08-10 10:05 51°12.108 2°48.793 7.9 25 19.6 101170 43
2010-08-10 10:06 51°12.141 2°48.793 7.7 30 19.5 101170 44
2010-08-10 10:07 51°12.176 2°48.811 6.7 24 19.5 101170 44
2010-08-10 10:08 51°12.205 2°48.851 7.1 43 19.4 101180 44
2010-08-10 10:09 51°12.257 2°48.941 6.7 21 19.4 101170 43
2010-08-10 10:10 51°12.342 2°49.02 4.1 21 19.5 101180 46
2010-08-10 10:11 51°12.456 2°49.063 5.4 28 19.6 101170 44
2010-08-10 10:12 51°12.574 2°49.171 4.7 24 19.7 101170 45
2010-08-10 10:13 51°12.693 2°49.339 5.8 26 19.7 101170 44
2010-08-10 10:14 51°12.746 2°49.497 8.9 27 19.7 101160 43
2010-08-10 10:15 51°12.748 2°49.582 8.5 26 19.6 101170 44
2010-08-10 10:16 51°12.748 2°49.635 7.5 17 19.6 101170 44
2010-08-10 10:17 51°12.749 2°49.674 8 20 19.6 101160 43
2010-08-10 10:18 51°12.752 2°49.705 6.6 19 19.7 101160 45
2010-08-10 10:19 51°12.751 2°49.737 8.5 2 19.6 101160 44
2010-08-10 10:20 51°12.675 2°49.804 11 343 19.6 101140 44
2010-08-10 10:21 51°12.532 2°49.821 13.5 340 19.6 101110 43
2010-08-10 10:22 51°12.383 2°49.738 10.2 328 19.7 101130 43
2010-08-10 10:23 51°12.285 2°49.585 9.7 319 19.8 101130 43
2010-08-10 10:24 51°12.279 2°49.482 8.5 30 19.9 101130 43
2010-08-10 10:25 51°12.299 2°49.421 7.5 21 19.9 101130 43
2010-08-10 10:26 51°12.346 2°49.372 5.2 24 19.9 101130 43
2010-08-10 10:27 51°12.44 2°49.446 3.6 45 20.1 101150 43
2010-08-10 10:28 51°12.568 2°49.677 4.1 29 20.1 101150 43
2010-08-10 10:29 51°12.695 2°49.94 2.5 26 20.1 101150 42
2010-08-10 10:30 51°12.818 2°50.212 4.9 29 20 101150 44
2010-08-10 10:31 51°12.927 2°50.498 3 30 20 101150 43
2010-08-10 10:32 51°13.038 2°50.784 4.2 26 20 101150 43
2010-08-10 10:33 51°13.15 2°51.069 6 23 20 101150 43
2010-08-10 10:34 51°13.239 2°51.303 5.7 34 19.9 101160 43
2010-08-10 10:35 51°13.297 2°51.448 5.2 43 19.9 101150 43
2010-08-10 10:36 51°13.363 2°51.509 6.9 23 20.1 101140 45
2010-08-10 10:37 51°13.422 2°51.481 10.4 258 20 101130 44
2010-08-10 10:39 51°13.488 2°51.452 6.6 268 20 101120 43
2010-08-10 10:41 51°13.52 2°51.532 8 33 20 101110 43
2010-08-10 10:42 51°13.54 2°51.568 8.5 36 20 101120 44
2010-08-10 10:43 51°13.562 2°51.603 8.1 31 19.9 101120 43
2010-08-10 10:44 51°13.583 2°51.636 7.2 269 20 101110 43
2010-08-10 10:45 51°13.605 2°51.67 6.7 264 20 101110 42
2010-08-10 10:46 51°13.627 2°51.714 6.9 263 20 101100 42
2010-08-10 10:47 51°13.642 2°51.769 8.8 270 19.9 101110 43
2010-08-10 10:48 51°13.643 2°51.826 7.5 32 20 101110 43
2010-08-10 10:49 51°13.693 2°51.935 6.8 36 19.9 101130 42
2010-08-10 10:50 51°13.783 2°52.16 3.4 30 19.9 101130 42
2010-08-10 10:51 51°13.904 2°52.426 5.9 37 19.9 101120 44
2010-08-10 10:52 51°14.015 2°52.679 4.4 43 19.8 101130 43
2010-08-10 10:53 51°14.118 2°52.933 4.6 41 19.9 101120 42
2010-08-10 10:54 51°14.222 2°53.187 4.3 40 19.9 101130 43
2010-08-10 10:55 51°14.327 2°53.44 4.9 37 20 101120 43
2010-08-10 10:56 51°14.432 2°53.695 3.9 35 20 101120 43
2010-08-10 10:57 51°14.567 2°53.992 3.1 33 20 101120 43
2010-08-10 10:58 51°14.718 2°54.305 3 32 20 101120 43
2010-08-10 10:59 51°14.879 2°54.606 1 24 20 101120 44
2010-08-10 11:00 51°15.05 2°54.894 0.9 37 20.1 101120 43
2010-08-10 11:01 51°15.261 2°55.104 0.4 40 20.2 101120 44
2010-08-10 11:02 51°15.454 2°55.348 2.1 40 20.2 101120 42
2010-08-10 11:03 51°15.612 2°55.655 2.3 6 20.3 101120 43
2010-08-10 11:04 51°15.756 2°55.981 6.6 28 20.3 101110 42
2010-08-10 11:05 51°15.9 2°56.31 4.3 14 20.2 101110 43
2010-08-10 11:06 51°16.044 2°56.637 5 29 20.2 101110 43
2010-08-10 11:07 51°16.19 2°56.96 4.8 30 20.2 101110 42
2010-08-10 11:08 51°16.336 2°57.289 2.6 27 20.2 101110 42
2010-08-10 11:09 51°16.485 2°57.616 5 27 20.2 101100 44
2010-08-10 11:10 51°16.63 2°57.943 4.2 18 20.2 101100 42
2010-08-10 11:11 51°16.778 2°58.27 5.3 33 20.2 101110 42
2010-08-10 11:12 51°16.928 2°58.599 3.8 21 20.2 101110 42
2010-08-10 11:13 51°17.076 2°58.927 2.3 26 20.2 101100 44
2010-08-10 11:14 51°17.225 2°59.256 3.7 23 20.3 101100 44
2010-08-10 11:15 51°17.375 2°59.586 4.8 17 20.2 101100 43
2010-08-10 11:16 51°17.525 2°59.915 3.3 29 20.2 101100 44
2010-08-10 11:17 51°17.676 3°0.244 4.6 23 20.2 101100 42
2010-08-10 11:18 51°17.827 3°0.578 2.4 26 20.2 101100 41
2010-08-10 11:19 51°17.977 3°0.909 3.6 24 20.3 101100 43
2010-08-10 11:20 51°18.129 3°1.24 4.9 21 20.2 101090 43
2010-08-10 11:21 51°18.282 3°1.572 6 21 20.2 101100 43
2010-08-10 11:22 51°18.434 3°1.898 4.3 23 20.2 101100 42
2010-08-10 11:23 51°18.581 3°2.224 4.8 24 20.2 101090 44
2010-08-10 11:24 51°18.729 3°2.549 4.9 23 20.2 101090 43
2010-08-10 11:25 51°18.879 3°2.879 4 31 20.2 101090 43
2010-08-10 11:26 51°19.03 3°3.213 5.2 21 20.2 101100 44
2010-08-10 11:27 51°19.18 3°3.549 4.4 28 20.2 101100 43
2010-08-10 11:28 51°19.331 3°3.883 5.4 27 20.2 101100 44
2010-08-10 11:29 51°19.482 3°4.209 4.9 23 20.2 101100 44
2010-08-10 11:30 51°19.627 3°4.536 4.6 15 20.2 101100 44
2010-08-10 11:31 51°19.776 3°4.863 5 29 20.2 101100 44
2010-08-10 11:32 51°19.928 3°5.193 6.7 30 20.2 101110 44
2010-08-10 11:33 51°20.081 3°5.527 4.4 29 20.2 101110 43
2010-08-10 11:34 51°20.231 3°5.86 4.4 27 20.2 101110 42
2010-08-10 11:35 51°20.384 3°6.197 3.8 26 20.2 101110 44
2010-08-10 11:36 51°20.537 3°6.536 4.2 32 20.3 101110 44
2010-08-10 11:37 51°20.688 3°6.87 5.5 23 20.2 101110 43
2010-08-10 11:38 51°20.841 3°7.202 3.7 34 20.2 101110 44
2010-08-10 11:39 51°20.997 3°7.534 3.1 30 20.2 101100 43
2010-08-10 11:40 51°21.153 3°7.868 4.9 29 20.2 101100 42
2010-08-10 11:41 51°21.308 3°8.2 4.8 29 20.2 101100 43
2010-08-10 11:45 51°21.984 3°9.652 3 27 20.2 101100 43
2010-08-10 11:46 51°22.137 3°9.996 3.3 41 20.2 101100 43
2010-08-10 11:47 51°22.29 3°10.345 1.5 27 20.2 101090 41
2010-08-10 11:48 51°22.417 3°10.672 5.2 28 20.3 101100 43
2010-08-10 11:49 51°22.441 3°10.893 7.6 17 20.3 101100 45
2010-08-10 11:50 51°22.431 3°11.039 8.1 10 20.2 101080 45
2010-08-10 11:51 51°22.451 3°11.123 7.6 26 20.3 101090 44
2010-08-10 11:52 51°22.485 3°11.162 7.3 30 20.2 101100 44
2010-08-10 11:53 51°22.5 3°11.15 8.1 40 20.2 101100 43
2010-08-10 11:54 51°22.503 3°11.164 9.1 33 20.2 101100 44
2010-08-10 11:55 51°22.528 3°11.249 6.2 35 20.2 101100 42
2010-08-10 11:56 51°22.552 3°11.331 7.3 34 20.3 101090 43
2010-08-10 11:57 51°22.578 3°11.412 9.7 43 20.2 101090 43
2010-08-10 11:58 51°22.602 3°11.491 7.1 267 20.2 101080 43
2010-08-10 11:59 51°22.624 3°11.571 8.8 260 20.2 101090 42
2010-08-10 12:00 51°22.643 3°11.652 8.5 259 20.2 101090 43
2010-08-10 12:01 51°22.662 3°11.736 9.7 257 20.3 101090 44
2010-08-10 12:02 51°22.68 3°11.823 7.7 263 20.2 101090 43
2010-08-10 12:03 51°22.698 3°11.915 5.2 263 20.2 101080 41
2010-08-10 12:04 51°22.749 3°11.988 5.7 38 20.3 101090 43
2010-08-10 12:05 51°22.909 3°12.179 0.2 40 20.3 101100 44
2010-08-10 12:06 51°23.109 3°12.422 1.1 42 20.3 101100 44
2010-08-10 12:07 51°23.312 3°12.665 2.3 40 20.4 101100 43
2010-08-10 12:08 51°23.512 3°12.913 1 38 20.4 101100 43
2010-08-10 12:09 51°23.713 3°13.163 2.3 34 20.4 101100 44
2010-08-10 12:10 51°23.91 3°13.404 0.7 41 20.4 101100 42
2010-08-10 12:11 51°24.056 3°13.739 2.8 28 20.4 101100 43
2010-08-10 12:12 51°24.088 3°13.994 6.9 18 20.4 101100 45
2010-08-10 12:13 51°24.05 3°14.135 8.3 1 20.3 101100 44
2010-08-10 12:14 51°24.015 3°14.223 8.7 354 20.2 101090 44
2010-08-10 12:15 51°23.992 3°14.306 9.2 1 20.1 101070 45
2010-08-10 12:16 51°23.984 3°14.392 7.7 10 20 101100 46
2010-08-10 12:17 51°23.982 3°14.475 6.8 8 19.6 101110 48
2010-08-10 12:18 51°23.983 3°14.556 7.5 11 19.4 101090 48
2010-08-10 12:19 51°23.93 3°14.617 7.8 352 19.1 101080 47
2010-08-10 12:20 51°23.87 3°14.652 7.9 346 19 101080 50
2010-08-10 12:21 51°23.82 3°14.667 8.9 353 18.9 101070 50
2010-08-10 12:22 51°23.751 3°14.703 7.4 355 18.8 101070 49
2010-08-10 12:23 51°23.682 3°14.759 8.7 353 18.8 101090 51
2010-08-10 12:24 51°23.618 3°14.763 8.9 337 18.7 101080 50
2010-08-10 12:25 51°23.567 3°14.714 10 330 18.7 101090 51
2010-08-10 12:26 51°23.532 3°14.656 9.4 323 18.7 101090 49
2010-08-10 12:27 51°23.524 3°14.603 9.8 322 18.7 101100 49
2010-08-10 12:28 51°23.52 3°14.552 8.1 325 18.7 101090 50
2010-08-10 12:29 51°23.509 3°14.502 9.1 327 18.6 101090 50
2010-08-10 12:30 51°23.49 3°14.453 8.1 331 18.5 101090 50
2010-08-10 12:31 51°23.461 3°14.406 9 334 18.5 101080 51
2010-08-10 12:32 51°23.43 3°14.362 10.1 328 18.4 101080 50
2010-08-10 12:33 51°23.42 3°14.305 8.5 325 18.3 101090 49
2010-08-10 12:34 51°23.415 3°14.244 10.1 326 18.4 101090 50
2010-08-10 12:35 51°23.411 3°14.182 10.5 324 18.4 101080 48
2010-08-10 12:36 51°23.409 3°14.122 9.6 322 18.3 101080 50
2010-08-10 12:37 51°23.407 3°14.06 10.6 322 18.4 101090 51
2010-08-10 12:38 51°23.406 3°13.995 9.4 325 18.4 101080 49
2010-08-10 12:39 51°23.404 3°13.932 10.2 323 18.4 101070 50
2010-08-10 12:40 51°23.401 3°13.867 10.5 320 18.4 101080 50
2010-08-10 12:41 51°23.401 3°13.802 8.4 325 18.4 101080 49
2010-08-10 12:42 51°23.399 3°13.736 9.6 323 18.5 101080 50
2010-08-10 12:43 51°23.397 3°13.67 9.6 320 18.5 101080 48
2010-08-10 12:44 51°23.395 3°13.604 10.1 319 18.4 101080 50
2010-08-10 12:49 51°23.36 3°13.283 8.5 319 18.4 101080 50
2010-08-10 12:50 51°23.35 3°13.202 7.9 322 18.4 101090 50
2010-08-10 12:51 51°23.341 3°13.134 8.3 325 18.4 101090 49
2010-08-10 12:52 51°23.307 3°13.098 9.7 339 18.3 101090 51
2010-08-10 12:53 51°23.249 3°13.107 8.6 344 18.2 101080 49
2010-08-10 12:54 51°23.19 3°13.118 8.6 350 18.3 101080 51
2010-08-10 12:55 51°23.132 3°13.157 8.9 357 18.2 101080 50
2010-08-10 12:56 51°23.086 3°13.202 7.6 357 18.2 101090 50
2010-08-10 12:57 51°23.045 3°13.245 8.1 352 18.2 101080 50
2010-08-10 12:58 51°23.008 3°13.275 9 349 18.1 101090 51
2010-08-10 12:59 51°22.978 3°13.296 8.4 343 18.1 101090 48
2010-08-10 13:00 51°22.965 3°13.32 7.5 331 18.1 101090 50
2010-08-10 13:01 51°22.936 3°13.305 8.5 334 18.1 101090 50
2010-08-10 13:02 51°22.858 3°13.24 9.4 342 18.1 101070 50
2010-08-10 13:03 51°22.807 3°13.272 7.7 357 18 101080 50
2010-08-10 13:04 51°22.78 3°13.329 7.4 4 18 101090 49
2010-08-10 13:05 51°22.766 3°13.392 7.7 1 18 101110 50
2010-08-10 13:06 51°22.761 3°13.454 5.9 4 18 101100 50
2010-08-10 13:07 51°22.709 3°13.515 11.5 349 18 101100 49
2010-08-10 13:08 51°22.599 3°13.499 8.2 338 17.9 101090 50
2010-08-10 13:09 51°22.56 3°13.491 8.4 332 17.9 101100 49
2010-08-10 13:10 51°22.544 3°13.51 7.2 334 17.8 101110 50
2010-08-10 13:11 51°22.538 3°13.546 6.3 337 17.8 101110 49
2010-08-10 13:12 51°22.519 3°13.544 9.8 322 17.8 101100 50
2010-08-10 13:13 51°22.498 3°13.372 12.2 323 17.9 101080 50
2010-08-10 13:14 51°22.466 3°13.104 12.7 323 17.8 101070 49
2010-08-10 13:15 51°22.437 3°12.858 10 318 17.9 101080 47
2010-08-10 13:16 51°22.424 3°12.729 10 34 17.9 101090 49
2010-08-10 13:17 51°22.417 3°12.622 9.8 317 17.9 101090 49
2010-08-10 13:18 51°22.406 3°12.493 9 31 17.9 101090 49
2010-08-10 13:19 51°22.398 3°12.371 9.7 37 17.8 101080 48
2010-08-10 13:20 51°22.386 3°12.22 9.9 318 17.8 101080 49
2010-08-10 13:21 51°22.37 3°12.027 10 35 17.9 101080 50
2010-08-10 13:22 51°22.351 3°11.805 11.5 316 17.9 101080 50
2010-08-10 13:23 51°22.308 3°11.53 11.8 316 17.9 101080 49
2010-08-10 13:24 51°22.277 3°11.242 12.4 318 17.8 101080 49
2010-08-10 13:25 51°22.245 3°10.958 13 318 17.8 101070 48
2010-08-10 13:26 51°22.213 3°10.665 13.6 318 17.8 101040 49
2010-08-10 13:27 51°22.18 3°10.369 14.1 316 17.8 101040 49
2010-08-10 13:28 51°22.154 3°10.069 11.6 318 17.7 101040 49
2010-08-10 13:29 51°22.131 3°9.776 11.6 34 17.7 101050 48
2010-08-10 13:30 51°22.108 3°9.476 13.3 38 17.8 101050 49
2010-08-10 13:31 51°22.086 3°9.175 11.8 36 17.7 101050 48
2010-08-10 13:32 51°22.062 3°8.872 13.2 36 17.8 101040 49
2010-08-10 13:33 51°22.038 3°8.563 13.3 40 17.8 101060 48
2010-08-10 13:34 51°22.014 3°8.266 10.9 34 17.8 101050 49
2010-08-10 13:35 51°21.993 3°7.961 11.7 316 17.8 101040 49
2010-08-10 13:36 51°21.962 3°7.669 12.5 317 17.8 101050 48
2010-08-10 13:37 51°21.92 3°7.372 14 317 17.8 101050 48
2010-08-10 13:38 51°21.866 3°7.085 13.5 318 17.8 101030 49
2010-08-10 13:39 51°21.806 3°6.797 12.2 316 17.8 101030 47
2010-08-10 13:40 51°21.745 3°6.518 12.9 316 17.7 101030 48
2010-08-10 13:41 51°21.682 3°6.228 11.8 318 17.7 101030 48
2010-08-10 13:42 51°21.619 3°5.945 15.7 316 17.7 101050 48
2010-08-10 13:43 51°21.557 3°5.664 14.2 316 17.7 101040 48
2010-08-10 13:44 51°21.501 3°5.389 14.6 317 17.7 101040 48
2010-08-10 13:45 51°21.441 3°5.103 14.3 317 17.7 101020 48
2010-08-10 13:46 51°21.374 3°4.825 13.4 316 17.8 101040 49
2010-08-10 13:47 51°21.297 3°4.551 14 39 17.8 101040 48
2010-08-10 13:48 51°21.225 3°4.273 15 318 17.7 101020 48
2010-08-10 13:49 51°21.151 3°3.994 14.2 317 17.7 101030 49
2010-08-10 13:50 51°21.079 3°3.711 14.4 318 17.7 101020 48
2010-08-10 13:51 51°20.997 3°3.385 12.7 317 17.7 101020 48
2010-08-10 13:52 51°20.925 3°3.101 13.2 317 17.7 101030 48
2010-08-10 13:53 51°20.83 3°2.721 13 319 17.8 101030 49
2010-08-10 13:54 51°20.759 3°2.436 13.8 317 17.8 101060 49
2010-08-10 13:55 51°20.689 3°2.151 13.3 316 17.7 101040 49
2010-08-10 13:56 51°20.619 3°1.864 14.9 318 17.7 101050 49
2010-08-10 13:57 51°20.547 3°1.575 15.4 316 17.7 101050 48
2010-08-10 13:58 51°20.473 3°1.286 13 320 17.7 101050 48
2010-08-10 13:59 51°20.401 3°0.998 13.1 320 17.8 101060 49
2010-08-10 14:00 51°20.331 3°0.709 12.7 320 17.8 101060 46
2010-08-10 14:01 51°20.261 3°0.423 12.3 320 17.9 101050 48
2010-08-10 14:02 51°20.193 3°0.137 14.1 318 17.9 101060 49
2010-08-10 14:03 51°20.124 2°59.853 14 316 18 101060 48
2010-08-10 14:04 51°20.057 2°59.566 14.4 317 17.9 101060 48
2010-08-10 14:05 51°19.988 2°59.282 13.5 318 17.9 101040 48
2010-08-10 14:06 51°19.92 2°58.999 12 317 18 101070 49
2010-08-10 14:07 51°19.853 2°58.715 13.3 318 18 101050 48
2010-08-10 14:08 51°19.785 2°58.432 13.1 319 17.9 101060 46
2010-08-10 14:09 51°19.719 2°58.144 13.2 320 18 101070 48
2010-08-10 14:10 51°19.652 2°57.859 11.7 322 18 101060 49
2010-08-10 14:11 51°19.584 2°57.575 13.4 321 18 101070 48
2010-08-10 14:12 51°19.516 2°57.288 13 317 17.9 101060 48
2010-08-10 14:13 51°19.449 2°57.006 13.3 319 18 101070 48
2010-08-10 14:14 51°19.381 2°56.722 12.1 321 17.9 101060 48
2010-08-10 14:15 51°19.313 2°56.432 13.9 320 18 101060 49
2010-08-10 14:16 51°19.244 2°56.141 12.2 320 18 101060 47
2010-08-10 14:17 51°19.174 2°55.851 12.3 319 18.1 101060 48
2010-08-10 14:18 51°19.104 2°55.559 11.8 323 18.1 101060 48
2010-08-10 14:19 51°19.036 2°55.265 13.4 323 18 101050 48
2010-08-10 14:20 51°18.965 2°54.971 13.6 320 18 101060 48
2010-08-10 14:21 51°18.899 2°54.677 12.9 321 18.1 101060 48
2010-08-10 14:22 51°18.832 2°54.386 12.7 321 18 101060 48
2010-08-10 14:23 51°18.765 2°54.093 12.6 323 18 101060 49
2010-08-10 14:24 51°18.694 2°53.8 11.7 322 18 101060 47
2010-08-10 14:25 51°18.61 2°53.519 12.9 324 18 101050 48
2010-08-10 14:26 51°18.523 2°53.246 12.8 324 18 101060 48
2010-08-10 14:27 51°18.421 2°52.986 12.7 327 18 101070 48
2010-08-10 14:28 51°18.295 2°52.757 11.7 333 18 101080 48
2010-08-10 14:29 51°18.136 2°52.585 11.8 336 18 101080 49
2010-08-10 14:30 51°17.953 2°52.492 12.2 340 17.9 101070 48
2010-08-10 14:31 51°17.76 2°52.475 13.7 339 18 101070 48
2010-08-10 14:32 51°17.562 2°52.474 13.5 342 17.9 101070 46
2010-08-10 14:33 51°17.366 2°52.504 11.9 345 18 101070 49
2010-08-10 14:34 51°17.173 2°52.566 12.4 344 18 101070 48
2010-08-10 14:35 51°16.981 2°52.653 12 343 18 101070 49
2010-08-10 14:36 51°16.797 2°52.783 12.8 345 18.1 101060 49
2010-08-10 14:37 51°16.617 2°52.935 13.1 346 18 101050 48
2010-08-10 14:38 51°16.431 2°53.066 13.2 346 18.1 101050 48
2010-08-10 14:39 51°16.242 2°53.189 12.1 344 18 101060 48
2010-08-10 14:40 51°16.052 2°53.313 13.4 344 18.1 101060 46
2010-08-10 14:41 51°15.867 2°53.453 12.8 345 18 101060 47
2010-08-10 14:42 51°15.689 2°53.624 10.9 351 18.1 101060 49
2010-08-10 14:43 51°15.528 2°53.837 12.6 350 18.1 101060 48
2010-08-10 14:44 51°15.366 2°54.047 12.6 348 18 101050 48
2010-08-10 14:45 51°15.195 2°54.247 10.8 347 18 101060 48
2010-08-10 14:46 51°15.03 2°54.455 10.8 347 18 101070 49
2010-08-10 14:47 51°14.863 2°54.659 12.8 347 18 101070 47
2010-08-10 14:48 51°14.69 2°54.837 11.1 348 17.9 101060 46
2010-08-10 14:49 51°14.516 2°55.007 8.1 350 17.9 101070 48
2010-08-10 14:50 51°14.357 2°55.183 7.3 345 17.9 101070 49
2010-08-10 14:51 51°14.22 2°55.329 3.9 343 17.9 101090 47
2010-08-10 14:52 51°14.094 2°55.437 7.9 351 18 101100 47
2010-08-10 14:57 51°13.707 2°55.809 3.9 5 18.1 101120 48
2010-08-10 14:58 51°13.673 2°55.918 4.1 283 18.1 101120 48
2010-08-10 14:59 51°13.662 2°55.959 0.4 32 18.1 101120 49